www.pogodaiklimat.ru

Погода и климат >> Архив погоды >> Чили >> Pudahuel


ПОГОДА в Pudahuel

  • Прогноз погоды в Pudahuel
  • Монитор погоды в Pudahuel
  • Климат города

АРХИВ ПОГОДЫ в Pudahuel

Время (UTC), дата Ветер
(напр.,м/с)
 
Видим.   Явления Облачность Т
(С)
Тd
(С)
f
(%)
Тe
(С)
Тes
(С)
Комфортность P
(гПа)
Po
(гПа)
Тmin
(С)
Tmax
(С)
R
(мм)
R24
(мм)
S
(см)
03 13.07 С 3 5000 м мгла 4/0
[]
+7.5 +5.1 85 +5 +5 1021.4 964.5
06 13.07 Ю 2 4000 м мгла ясно +6.6 +4.2 85 +5 +5 1020.6 963.6
09 13.07 СВ 3 4000 м дымка ясно +4.4 +3.1 91 +1 +1 1020.2 963.0
12 13.07 0 4000 м дымка 4/0
[Ci fib]
+4.3 +3.1 92 1020.5 963.0 +3.2
15 13.07 0 5000 м мгла 8/0
[]
+12.3 +5.4 63 1018.9 963.1
18 13.07 СЗ 2 10 км 8/0
[Ci fib]
+19.8 +6.8 43 +21 +26 комфорт 1014.8 960.6
21 13.07 0 10 км 8/0
[]
+22.2 +1.6 26 1013.0 959.3
00 14.07 ЮВ 3 10 км 6/0
[Ci fib]
+16.7 +7.1 53 +17 +17 1015.1 960.3 +22.7
03 14.07 0 8000 м мгла 6/0
[]
+14.1 +6.7 61 1017.0 961.5
06 14.07 СВ 2 5000 м мгла 5/0
[Ci fib]
+9.7 +5.7 76 +8 +8 1018.0 961.3
09 14.07 СВ 2 5000 м дымка 6/0
[]
+6.6 +4.9 89 +4 +4 1017.8 960.7
12 14.07 СВ 2 5000 м дымка 6/0
[Ci fib]
+5.9 +3.9 87 +3 +3 1018.4 961.4 +5.5
15 14.07 ЮВ 3 10 км 8/0
[]
+12.6 +6.5 66 +11 +14 1017.7 962.0
18 14.07 Ю 6 10 км 3/0
[Ci fib]
+16.6 +9.5 63 +16 +18 1015.8 960.9
21 14.07 Ю 5 10 км 5/0
[]
+15.3 +9.9 70 +14 +14 1016.4 961.3
00 15.07 0 10 км 4/0
[Ci fib]
+11.3 +8.7 84 1018.2 962.1 +17.1
03 15.07 ЮВ 2 8000 м мгла 5/5 600 м
[St]
+10.2 +8.5 89 +9 +9 1019.8 963.5
06 15.07 0 5000 м дымка 10/10 450 м
[St]
+9.9 +8.9 93 1018.4 962.1
09 15.07 0 6000 м дымка 10/10 450 м
[St]
+10.6 +8.7 88 1018.9 962.2
12 15.07 В 2 5000 м дымка 10/10 450 м
[St]
+10.4 +8.6 89 +9 +9 1018.5 962.7 +8.8
15 15.07 0 5000 м мгла 10/10 450 м
[Sc]
+11.1 +8.6 85 1019.4 963.3
18 15.07 С 2 5000 м мгла 9/9 480 м
[Sc]
+13.1 +8.3 73 +13 +13 1017.6 962.0
21 15.07 З 3 6000 м мгла 3/3 600 м
[Sc]
+13.5 +8.2 70 +13 +13 1017.3 961.8
00 16.07 З 2 6000 м мгла 9/9 600 м
[Sc]
+11.2 +8.2 82 +10 +10 1017.9 961.9 +14.0
03 16.07 0 6000 м мгла 10/10 480 м
[Sc]
+11.2 +8.0 81 1018.2 962.2
06 16.07 С 2 5000 м мгла 10/10 450 м
[Sc]
+10.8 +8.1 83 +10 +10 1017.8 961.7
09 16.07 СЗ 2 5000 м мгла 10/10 400 м
[Sc]
+10.3 +7.2 81 +9 +9 1016.4 960.3
12 16.07 0 4000 м мгла 10/10 360 м
[St]
+9.4 +6.8 84 1017.5 961.2 +9.3
15 16.07 С 2 4000 м мгла 10/10 360 м
[Sc]
+9.6 +6.4 80 +8 +8 1018.4 962.1
18 16.07 0 5000 м мгла 8/0
[Ac trans Ci fib]
+12.6 +6.9 68 1016.4 960.8
21 16.07 С 2 5000 м мгла 9/0
[Ac trans]
+12.9 +7.6 70 +13 +13 1016.6 961.0
00 17.07 0 5000 м мгла 8/0
[Ac trans]
+12.0 +7.3 73 1016.7 960.9 +13.6
03 17.07 0 7000 м мгла 8/0
[Ac trans]
+10.7 +6.9 77 1016.8 960.6
06 17.07 Ю 3 8000 м мгла 8/0
[Ac trans]
+9.2 +3.5 67 +7 +7 1017.4 960.8
09 17.07 Ю 3 10 км 8/0
[Ac As]
+8.6 +3.8 72 +7 +7 1017.2 960.5
12 17.07 Ю 5 8000 м мгла 9/3 750 м
[Sc Ac trans]
+7.6 +3.4 75 +4 +4 1019.1 962.1 +7.5
15 17.07 Ю 4 10 км 8/5 900 м
[Sc Ac trans]
+8.9 +3.9 71 +6 +8 1020.1 963.5
18 17.07 Ю 4 10 км 6/5 900 м
[Cu Sc Ac trans]
+12.3 +6.1 66 +11 +13 1018.2 962.4 0.0
21 17.07 Ю 6 10 км 8/6 450 м
[Cu Sc Ac trans]
+8.7 +5.1 78 +5 +5 1020.1 963.6
00 18.07 ЮВ 3 10 км 10/10 600 м
[Cu Sc]
+8.2 +2.8 69 +6 +6 1021.1 964.3 +12.5
03 18.07 ЮВ 3 10 км 10/10 600 м
[Sc]
+7.4 +2.6 72 +5 +5 1021.4 964.5
06 18.07 Ю 3 10 км 10/10 600 м
[Sc]
+6.9 +2.0 71 +4 +4 1021.3 964.3
09 18.07 ЮВ 3 10 км 10/10 600 м
[Sc]
+6.4 +2.3 75 +4 +4 1020.7 963.6
12 18.07 ЮВ 4 10 км 9/9 750 м
[Sc]
+6.2 +1.6 72 +3 +3 1022.3 965.1 +6.1
15 18.07 0 10 км 9/4 900 м
[Sc Ac trans]
+7.1 +1.7 68 1023.8 966.5
18 18.07 0 10 км 8/8 900 м
[Cu hum]
+9.5 +1.2 56 1021.7 965.0
21 18.07 ЮЗ 3 10 км 4/4 1200 м
[Cu hum]
+10.4 +0.7 51 +9 +9 1021.7 965.1
00 19.07 Ю 4 10 км 3/3 1500 м
[Cu hum]
+7.4 +0.2 60 +5 +5 1023.1 965.9 +11.2
03 19.07 ЮВ 3 10 км 6/6 1500 м
[Sc]
+5.5 -0.2 67 +3 +3 1024.8 967.3
06 19.07 С 2 10 км 3/3 1500 м
[Sc]
+1.5 -0.9 84 -1 -1 1025.0 966.7
09 19.07 СЗ 1 6000 м дым 4/3 1500 м
[Sc Ac trans]
+0.2 -1.0 92 -2 -2 1025.2 966.6
12 19.07 0 8000 м дым 3/3 1500 м
[Sc]
0.0 -1.3 91 1026.4 967.7 -0.1
15 19.07 0 10 км ясно +5.8 +0.4 68 1025.6 968.1
18 19.07 Ю 2 10 км 3/3 1500 м
[Cu med, cong]
+10.1 -1.1 46 +9 +14 1023.7 967.2
21 19.07 ЮЗ 4 10 км ясно +10.0 -2.8 41 +8 +8 1025.1 968.4

 

Местоположение метеостанции Pudahuel (Чили): широта -33.38 долгота -70.78 высота над уровнем моря 474 м.

В архиве по умолчанию представлена погода в Pudahuel за последнюю неделю. Архивные данные за месяц целиком и за предыдущие месяцы, начиная с января 2011 года, Вы можете получить, выбрав интересующий диапазон дат из раскрывающегося списка и нажав кнопку "Ввод!".


*Определитесь, кто Вы:
робот инопланетянин человек

Внимание! Время в таблицах - всемирное. Для получения местного времени необходимо прибавить поправку, которая в Pudahuel равна -4 ч.

Смотрите также архив погоды в соседних городах и на ближайших метеорологических станциях:

Погода в Santiago (Чили) (11 км)
Погода в San Antonio (Чили) (79 км)
Погода в Santo Domingo (Чили) (83 км)
Погода в Punta Angeles (Чили) (89 км)
Погода в Curico (Чили) (181 км)
Погода в Mendoza (Аргентина) (196 км)
Погода в San Martin (Аргентина) (223 км)
Погода в San Rafael (Аргентина) (257 км)
Погода в Malargue (Аргентина) (260 км)
Погода в San Juan (Аргентина) (313 км)

Пояснения к столбцам:

Ветер - указаны скорость ветра в м/с - средняя за 10 мин, порывы в срок и между сроками (в фигурных скобках) и направление, откуда дует ветер: С - северный, СВ - северо-восточный, В - восточный, ЮВ - юго-восточный, Ю - южный, ЮЗ - юго-западный, З - западный, СЗ - северо-западный.
Видимость - горизонтальная дальность видимости в метрах или километрах. При видимости от 1 до 10 км при отсутствии осадков обычно наблюдается дымка, при ухудшении видимости до 1 км и менее - туман. В сухую погоду видимость может ухудшаться дымом, пылью или мглою.
Явления - указаны атмосферные явления, наблюдавшиеся в срок или в последний час перед сроком; фигурными скобками обозначены явления, наблюдавшиеся между сроками (за 1-3 часа до срока); квадратными скобками обозначены град или гололедные отложения с указанием их диаметра в мм.
Облачность - указаны через наклонную черту общая и нижняя облачность в баллах и высота нижней границы облаков в метрах; квадратными скобками обозначены формы облаков: Ci - перистые, Cs - перисто-слоистые, Cc - перисто-кучевые, Ac - высококучевые, As - высокослоистые, Sc - слоисто-кучевые, Ns - слоисто-дождевые, Cu - кучевые, Cb - кучево-дождевые. Подробнее классификацию облаков см. в Атласе облаков (PDF).
T - Температура воздуха - температура, измеренная на высоте 2 м над землей.
Td - Температура точки росы - температура, при понижении до которой содержащийся в воздухе водяной пар достигнет насыщения.
f - Относительная влажность воздуха - влажноcть воздуха, измеренная на высоте 2 м над землей.
Te - Эффективная температура - температура, которую ощущает одетый по сезону человек в тени. Характеристика душности погоды. При расчете учитывается влияние влажности воздуха и скорости ветра на теплоощущения человека.
Tes - Эффективная температура на солнце - температура, которую ощущает человек, с поправкой на солнечный нагрев. Характеристика знойности погоды. Зависит от высоты солнца над горизонтом, облачности и скорости ветра. Ночью, в пасмурную погоду, а также при ветре 12 м/с и более поправка равна нулю.
P - Атмосферное давление - приведенное к уровню моря атмосферное давление.
Po - Атмосферное давление - измеренное на уровне метеостанции атмосферное давление.
Tmin - Минимальная температура - минимум температуры воздуха на высоте 2 м над землей.
Tmax - Максимальная температура - максимум температуры воздуха на высоте 2 м над землей.
R - Количество осадков - Количество выпавших осадков за период времени, мм. При наведении курсора мыши на число - период времени, за который выпало указанное количество осадков.
R24 - Количество осадков - Количество выпавших осадков за 24 часа, мм.
S - Снежный покров - Высота снежного покрова, см. При наведении курсора мыши на число - состояние снежного покрова и степень покрытия местности в баллах.